STARLINK-32541, 61916

Orbit data source: Space-Track

STARLINK-32541, 61916 is a payload satellite owned by SpaceX/Seattle (US) in LEO that was launched on Mon, 11 Nov 2024 UTC via an FALCON 9 launch vehicle from the Air Force Eastern Test Range (AFETR). Payload-class satellites include a variety of spacecraft equipped with specific instruments for various scientific and technological missions. These include communications satellites like Starlink; space stations such as the ISS; scientific satellites like the Hubble; Earth observation satellites from companies like Planet Labs, Umbra, and HawkEye 360; GPS; miniature CubeSats for education and research; and military/defense satellites.

Loading next visibility...
Identifier
61916, 2024-207E
Orbit
LEO
Country
Flag of USUS
Related business
Manufacturer
SpaceX/Seattle
Mission
Operational Commercial Communications
Bus & Motor
STARLINK V2M, Unknown motor
Mass
730 kg wet, ~700 kg dry
Launch date (UTC)
2024-11-11 (1 year ago)
Launch vehicle
FALCON 9
Launch site
Air Force Eastern Test Range (AFETR)
Object type
Payload
Rocket body
Debris
Shape & HBR
Box + 2 Pan, 17.7 m
Radar Cross Section
33.884 m², Large (>1 m²)

Expand to show TLE details & history
Last TLE update: 17 hours ago

TLE from 17 hours ago
0 STARLINK-32541
1 61916U 24207E   25312.55914737  .00051777  00000-0  18755-2 0  9997
2 61916  43.0072 249.5556 0002814 268.3193  91.7337 15.27619987 56156
Epoch: 2025-11-08T13:25Z
TLE epoch observation values (Epoch: 2025-11-08T13:25:10.332Z)
Latitude
0.00001°
Longitude
0.27553°
Altitude
482.765 km
Speed
7.626 km/s
True Right ascension
16h 38m 13s
True Declination
0° 00' 00"
Sunlit
Object was in daylight at epoch
Visualization orbit readout
Latitude
Unknown
Longitude
Unknown
Altitude
Unknown
Speed
Unknown
Apparent Right ascension
Unknown
Apparent Declination
Unknown
Sunlit
N/A
Visualization observer readout
Local Sidereal Time
02:55:23
Azimuth
Unknown
Elevation
Unknown
Doppler factor
Unknown
Orbital elements
Apogee altitude
486.805 km
Perigee altitude
482.942 km
Semi-major axis
6,863.01 km
Eccentricity
0.00028
Inclination
43.0072°
RAAN
249.5556°
Arg. of periapsis
268.3193°
True anomaly
91.76593°
Mean anomaly
91.7337°
Eccentric anomaly
91.74982°
Mean motion
3.81743 °/min
Orbital period
94.3 mins
BSTAR
0.0018755
Loading maneuver chart data...
Computing Atmospheric mass density...
Loading historical data...
Loading historical data...
Loading historical data...
Loading historical data...
Loading historical data...
Loading historical data...
Loading historical data...

Documentation

Showing up to 5 results
|